sat.trackr.live / text

‹ back to catalog

UNKNOWN

NORAD 87541

UNKNOWN UNKNOWN UNKNOWN

§ Identity

Operator
Country
Launch date
Launch site
Launch vehicle
Mass (kg)
RCS (m²)

External: N2YO · Heavens-Above

§ Orbital elements

Epoch: 2026-05-24T01:46:39.912384Z

Period
107.81 min
Inclination
99.6874°
Eccentricity
0.0059041
Mean motion
13.35644190 rev/d
Perigee alt
1,081.2 km
Apogee alt
1,169.9 km
Semi-major
7,503.7 km
B*
3.1379e-4
RAAN
354.7360°
Arg perigee
229.1976°
Mean anomaly
283.4893°
Rev number
60,370

§ Raw data

UNKNOWN1 87541U          26144.07407306  .00000119  00000+0  31379-3 0  99952 87541  99.6874 354.7360 0059041 229.1976 283.4893 13.35644190603702

JSON: /api/v1/satellites/87541 · /tle

For live sub-satellite position, see the globe view (requires WebGL).

§ Visibility from observer

Set your observer location to see the next 7 days of passes ≥ 10°. The values pass through the URL so the page stays shareable.

No JS? Fill the form by hand. The geolocation button needs JavaScript.